Regional Weather Roundup
Issued by NWS Grand Forks, ND

Home | Current Version | Previous Version | Graphics & Text | Print | Product List | Glossary On
Versions: 1 2 3 4 5 6 7 8 9 10 11 12 13 14 15 16 17 18 19 20 21 22 23 24 25 26 27 28 29 30 31 32 33 34 35 36 37 38 39 40 41 42 43 44 45 46 47 48 49 50
000
ASUS43 KFGF 200710
RWRFGF
PRAIRIE TO PINES  WEATHER ROUNDUP
NATIONAL WEATHER SERVICE EASTERN NORTH DAKOTA/GRAND FORKS ND
200 AM CDT WED AUG 20 2014

 **SATELLITE DATA USED TO AUGMENT SKY COVER AT AUTOMATED STATIONS**
 *****  WEATHER ACROSS EASTERN NORTH DAKOTA  *****

CITY           SKY/WX    TMP DP  RH WIND       PRES   REMARKS
GRAND FORKS    CLEAR     66  62  87 SE5       29.76S
GRAND FRKS AFB CLEAR     64  64  99 S6        29.77S
GRAND FRKS NWS   N/A     57 N/A N/A S3          N/A
DEVILS LAKE    CLEAR     70  63  78 S8        29.74S
FARGO          CLEAR     67  62  84 SE6       29.77R
WAHPETON ARPT  SUNNY     64  61  88 SE6       29.79S
$$

 ***** WEATHER ACROSS CENTRAL AND WESTERN NORTH DAKOTA  *****

CITY           SKY/WX    TMP DP  RH WIND       PRES   REMARKS
BISMARCK       PTCLDY    69  61  75 SE7       29.72F
MINOT          CLEAR     65  60  84 E6        29.69S
JAMESTOWN      PTCLDY    66  63  90 SE7       29.76F
MINOT AFB      CLEAR     62  62  99 SE6       29.68F
GARRISON         N/A     68  63  84 SE8       29.70F
WILLISTON      MOCLDY    73  60  63 S6        29.64S
DICKINSON      PTCLDY    64  57  78 S7        29.68F
HETTINGER      CLEAR     67  58  72 SE7       29.72F
$$

 *****  OTHER AIRPORT OBSERVATIONS IN OUR AREA  *****

CITY           SKY/WX    TMP DP  RH WIND       PRES   REMARKS
WALHALLA         N/A     68  68 100 SE6         N/A
GRAFTON AIRPOR FAIR      64  63  94 SE5       29.76S
VALLEY CITY AR PTSUNNY   68  68 100 S7        29.78S
CANDO          FAIR      64  64 100 SE7       29.75S
CAVALIER APRT  CLOUDY    66  63  88 S6        29.76S
GWINNER        SUNNY     66  66 100 CALM      29.78F
ROLLA          CLOUDY    57  57 100 S3        29.76S
 ***** THE ABOVE OBSERVATIONS ARE NON NWS ARE NOT QUALITY
       CONTROLLED AND MAY MIS-REPORT RAIN FOR SNOW...
$$

  *****  WEATHER ACROSS NORTHERN MINNESOTA  *****

CITY           SKY/WX    TMP DP  RH WIND       PRES   REMARKS
FLAG ISLAND    CLEAR     70  63  78 S9        29.80S
WARROAD        CLOUDY    64  61  88 SE6       29.82S
ROSEAU         MOCLDY    64  61  88 SE7       29.80S
HALLOCK        MOCLDY    66  63  88 SE8       29.77R
THF RVR FALLS  CLEAR     63  59  88 E6        29.80S
BAUDETTE       CLEAR     61  59  93 SE3       29.82S
WASKISH        CLEAR     57  57 100 CALM      29.83R
CROOKSTON      CLEAR     64  61  88 SE7       29.78F
$$
  *****  WEATHER ACROSS CENTRAL AND WEST MINNESOTA  *****

CITY           SKY/WX    TMP DP  RH WIND       PRES   REMARKS
FOSSTON        CLEAR     61  55  82 SE3       29.82S
BEMIDJI        CLEAR     61  60  96 SE3       29.82S
PARK RAPIDS    PTCLDY    61  60  97 CALM      29.82S
ELBOW LAKE     FAIR      65  62  90 SE5       29.81S
WADENA         CLEAR     61  59  94 CALM      29.81S
DETROIT LAKES  CLEAR     64  63  94 SE5       29.82S
MOORHEAD       PTCLDY    68  66  94 SE5       29.79R
FERGUS FALLS   CLEAR     66  61  82 SE3       29.80R
MORRIS MN      CLEAR     64  63  94 SE5       29.80S
STAPLES        PTCLDY    61  61 100 CALM      29.82S
$$
  *****  WEATHER ELSEWHERE ACROSS MINNESOTA  *****

CITY           SKY/WX    TMP DP  RH WIND       PRES   REMARKS
DULUTH         FOG       61  59  93 E6        29.83S VSB 1/2
INTRNTL FALLS  CLEAR     51  50  96 CALM      29.83S FOG
ELY            CLOUDY    61  61 100 CALM      29.84R
CLOQUET        MOCLDY    57  55  94 CALM      29.83S FOG
WHEATON        CLEAR     64  61  88 SE7       29.80F
BRAINERD       CLEAR     61  61 100 CALM      29.83R
HIBBING        MOCLDY    56  53  90 CALM      29.83F
ALEXANDRIA     CLEAR     64  61  90 SE3       29.83R
SAINT CLOUD    CLEAR     63  60  90 CALM      29.81S
MINNEAPOLIS    PTCLDY    69  66  90 CALM      29.80R
$$

  *****  WEATHER ACROSS SOUTH DAKOTA  *****

CITY           SKY/WX    TMP DP  RH WIND       PRES   REMARKS
SIOUX FALLS    CLEAR     67  63  87 SE5       29.80F
BROOKINGS      NOT AVBL
WATERTOWN      CLEAR     64  60  87 SE3       29.80F
HURON          PTCLDY    67  61  81 SE8       29.74F
SISSETON         N/A     63  63 100 S5        29.77F
ABERDEEN       CLEAR     62  61  96 SE6       29.75F
MITCHELL       MOCLDY    68  63  84 SE8       29.76F
PIERRE         TSTM      66  62  87 S17       29.77S
MOBRIDGE       CLEAR     67  63  87 SE7       29.70F
RAPID CITY     CLOUDY    71  56  58 S10       29.75S
$$

  *****  SOME WEATHER IN NEARBY STATES *****

CITY           SKY/WX    TMP DP  RH WIND       PRES   REMARKS
GLASGOW MT     PTCLDY    69  49  48 CALM      29.59R
GREAT FALLS MT MOCLDY    62  54  74 E6        29.77S
CHEYENNE WY    CLOUDY    60  52  74 W7        29.97S
SCOTTSBLUFF NE MOCLDY    69  56  62 SE7       29.83F
OMAHA NE       MOCLDY    74  65  73 SE6       29.81S
DES MOINES IA  PTCLDY    71  66  84 S3        29.83R
DAVENPORT IA   CLEAR     63  60  90 W3        29.84R
CHICAGO IL     CLEAR     69  61  75 W6        29.78F
EAU CLAIRE WI  FOG       61  61 100 CALM      29.79S VSB 1
LA CROSSE WI   CLEAR     67  64  90 S3        29.79S
$$

  *****  SOME NATIONAL WEATHER *****

CITY           SKY/WX    TMP DP  RH WIND       PRES   REMARKS
LA GUARDIA NY  PTCLDY    71  65  81 SW5       29.94R
RALEIGH NC     PTCLDY    73  69  87 E3        29.90R
ATLANTA GA     MOCLDY    73  71  93 W5        29.96F
NEW ORLEANS LA PTCLDY    79  74  84 SW5       29.97F
OKLAHOMA CITY  PTCLDY    75  67  76 S5        29.87F
ALBUQUERQUE NM MOCLDY    70  52  52 SW5       30.05S
SALT LAKE CITY LGT RAIN  69  57  65 CALM      29.89R
LOS ANGELES CA CLOUDY    69  60  73 CALM      29.88S
BOISE ID       MOCLDY    74  44  34 NE3       29.78S
SEATTLE WA     MOCLDY    62  50  64 SW6       29.86S
$$

*** WEATHER ACROSS MANITOBA...SASKATCHEWAN AND ONTARIO ***
                ***ONTARIO***

CITY           SKY/WX    TMP DP  RH WIND       PRES   REMARKS
GERALDTON      CLEAR     57  55  94 N3        29.83S
THUNDER BAY    CLOUDY    61  59  94 SW3       29.80S
SIOUX LOOKOUT  PTCLDY    57  57 100 CALM      29.85R
TORONTO        MOCLDY    64  59  82 NE2       29.83F
BIG TROUT LK   CLEAR     64  55  72 SE6       29.85R
PICKLE LAKE    NOT AVBL
DRYDEN         CLEAR     59  57  94 S3        29.86R
KENORA         CLEAR     61  59  94 SE5       29.84F
$$
                *** MANITOBA***

CITY           SKY/WX    TMP DP  RH WIND       PRES   REMARKS
BRANDON        CLEAR     61  59  94 SE6       29.73R
DAUPHIN        CLEAR     63  59  88 SE6       29.69F
ISLAND LAKE    PTCLDY    66  61  82 S5        29.77S
PILOT MOUND      N/A    N/A N/A N/A SE8         N/A
THE PAS        CLEAR     66  61  82 SE8       29.64S
THOMPSON       LGT RAIN  64  64 100 E2        29.67S
WINNIPEG       PTCLDY    66  61  82 SE10      29.77S
LYNN LAKE      CLOUDY    55  55 100 MISG      29.71R
CHURCHILL      LGT RAIN  46  46 100 SE13G21   29.81F
GILLAM         MOCLDY    61  61 100 SE5       29.72S
$$
                ***SASKATCHEWAN***

CITY           SKY/WX    TMP DP  RH WIND       PRES   REMARKS
ESTEVAN        MOCLDY    66  61  82 N13       29.65S
KINDERSLEY     TSTM      63  61  94 NW12G17   29.67R
LLOYDMINSTER   MOCLDY    61  54  77 NW8       29.68R
PRINCE ALBERT  MOCLDY    63  61  94 CALM      29.63F
REGINA         CLOUDY    66  63  88 NE10      29.61R
YORKTON        MOCLDY    66  61  82 SE10      29.67R HAZE
N. BATTLEFORD  MOCLDY    61  61 100 NW8       29.66F
LA RONGE       MOCLDY    61  59  94 CALM      29.67R
SASKATOON      MOCLDY    61  59  94 NE8       29.62S THUNDER
SWIFT CURRENT  PTCLDY    63  61  94 W20G32    29.66R
$$
NOTE: THESE ARE AUTOMATED STATIONS WITH LIMITED QUALITY CONTROL
      "FAIR" INDICATES FEW OR NO CLOUDS BELOW 12,000 FEET WITH NO
      SIGNIFICANT WEATHER AND/OR OBSTRUCTIONS TO VISIBILITY.
      SKY/WX - SKY CONDITION AND SIGNIFICANT WEATHER.
      TMP - AIR TEMPERATURE.    DP   - DEWPOINT TEMPERATURE.
      RH  - RELATIVE HUMIDITY.  PRES - PRESSURE.
      HX  - HEAT INDEX.         WCI  - WIND CHILL INDEX.
$


USA.gov is the U.S. government's official web portal to all federal, state and local government web resources and services.